Time,TemperatureF,DewpointF,PressureIn,WindDirection,WindDirectionDegrees,WindSpeedMPH,WindSpeedGustMPH,Humidity,HourlyPrecipIn,Conditions,Clouds,dailyrainin,SoftwareType,DateUTC
2013-09-03 00:02:00,72.3,54.7,29.84,West,259,3.0,16.0,54,0.00,,,0.00,Weather View 32 v70,2013-09-03 07:02:00,
2013-09-03 00:07:00,72.3,55.2,29.85,West,262,2.0,13.0,55,0.00,,,0.00,Weather View 32 v70,2013-09-03 07:07:00,
2013-09-03 00:12:00,72.1,55.0,29.85,West,259,2.0,13.0,55,0.00,,,0.00,Weather View 32 v70,2013-09-03 07:12:00,
2013-09-03 00:17:00,72.0,55.4,29.85,WSW,257,1.0,13.0,56,0.00,,,0.00,Weather View 32 v70,2013-09-03 07:17:00,
2013-09-03 00:22:00,71.8,55.2,29.85,WSW,258,5.0,13.0,56,0.00,,,0.00,Weather View 32 v70,2013-09-03 07:22:00,
2013-09-03 00:27:00,71.8,55.2,29.84,West,279,2.0,13.0,56,0.00,,,0.00,Weather View 32 v70,2013-09-03 07:27:00,
2013-09-03 00:32:00,71.8,55.2,29.84,WSW,258,2.0,13.0,56,0.00,,,0.00,Weather View 32 v70,2013-09-03 07:32:00,
2013-09-03 00:37:00,71.6,55.5,29.85,West,261,2.0,13.0,57,0.00,,,0.00,Weather View 32 v70,2013-09-03 07:37:00,
2013-09-03 00:42:00,71.5,55.4,29.85,West,259,4.0,13.0,57,0.00,,,0.00,Weather View 32 v70,2013-09-03 07:42:00,
2013-09-03 00:47:00,71.3,55.7,29.84,WSW,257,1.0,13.0,58,0.00,,,0.00,Weather View 32 v70,2013-09-03 07:47:00,
2013-09-03 00:52:00,71.1,55.5,29.84,WSW,252,2.0,13.0,58,0.00,,,0.00,Weather View 32 v70,2013-09-03 07:52:00,
2013-09-03 00:57:00,71.1,55.5,29.85,WSW,246,1.0,11.0,58,0.00,,,0.00,Weather View 32 v70,2013-09-03 07:57:00,
2013-09-03 01:02:00,70.9,55.8,29.85,WSW,248,4.0,14.0,59,0.00,,,0.00,Weather View 32 v70,2013-09-03 08:02:00,
2013-09-03 01:07:00,70.8,56.6,29.85,WSW,246,2.0,15.0,61,0.00,,,0.00,Weather View 32 v70,2013-09-03 08:07:00,
2013-09-03 01:12:00,70.4,56.3,29.85,West,267,4.0,15.0,61,0.00,,,0.00,Weather View 32 v70,2013-09-03 08:12:00,
2013-09-03 01:17:00,70.4,56.3,29.85,WSW,254,6.0,15.0,61,0.00,,,0.00,Weather View 32 v70,2013-09-03 08:17:00,
2013-09-03 01:21:00,70.4,56.3,29.85,WNW,285,4.0,15.0,61,0.00,,,0.00,Weather View 32 v70,2013-09-03 08:21:00,
2013-09-03 01:26:00,70.4,56.3,29.85,West,263,11.0,15.0,61,0.00,,,0.00,Weather View 32 v70,2013-09-03 08:26:00,
2013-09-03 01:31:00,70.4,56.3,29.85,WSW,256,8.0,18.0,61,0.00,,,0.00,Weather View 32 v70,2013-09-03 08:31:00,
2013-09-03 01:36:00,70.3,56.6,29.85,West,261,3.0,18.0,62,0.00,,,0.00,Weather View 32 v70,2013-09-03 08:36:00,
2013-09-03 01:41:00,70.3,56.6,29.85,West,270,4.0,18.0,62,0.00,,,0.00,Weather View 32 v70,2013-09-03 08:41:00,
2013-09-03 01:46:00,70.3,56.2,29.85,SSW,209,2.0,18.0,61,0.00,,,0.00,Weather View 32 v70,2013-09-03 08:46:00,
2013-09-03 01:51:00,70.1,56.4,29.85,West,269,10.0,18.0,62,0.00,,,0.00,Weather View 32 v70,2013-09-03 08:51:00,
2013-09-03 01:56:00,70.3,56.2,29.85,West,279,3.0,18.0,61,0.00,,,0.00,Weather View 32 v70,2013-09-03 08:56:00,
2013-09-03 02:01:00,70.1,56.0,29.85,WSW,258,7.0,18.0,61,0.00,,,0.00,Weather View 32 v70,2013-09-03 09:01:00,
2013-09-03 02:06:00,70.1,56.4,29.85,SW,236,12.0,18.0,62,0.00,,,0.00,Weather View 32 v70,2013-09-03 09:06:00,
2013-09-03 02:11:00,69.9,56.2,29.86,WSW,257,7.0,18.0,62,0.00,,,0.00,Weather View 32 v70,2013-09-03 09:11:00,
2013-09-03 02:16:00,69.8,56.2,29.86,WSW,245,5.0,18.0,62,0.00,,,0.00,Weather View 32 v70,2013-09-03 09:16:00,
2013-09-03 02:21:00,69.8,56.6,29.86,WSW,249,9.0,18.0,63,0.00,,,0.00,Weather View 32 v70,2013-09-03 09:21:00,
2013-09-03 02:26:00,69.6,56.4,29.86,WSW,250,4.0,18.0,63,0.00,,,0.00,Weather View 32 v70,2013-09-03 09:26:00,
2013-09-03 02:31:00,69.4,56.2,29.86,WSW,248,5.0,17.0,63,0.00,,,0.00,Weather View 32 v70,2013-09-03 09:31:00,
2013-09-03 02:36:00,69.3,56.1,29.86,SSW,194,2.0,17.0,63,0.00,,,0.00,Weather View 32 v70,2013-09-03 09:36:00,
2013-09-03 02:41:00,69.1,56.4,29.86,WSW,257,2.0,17.0,64,0.00,,,0.00,Weather View 32 v70,2013-09-03 09:41:00,
2013-09-03 02:46:00,68.9,56.2,29.86,WSW,244,9.0,17.0,64,0.00,,,0.00,Weather View 32 v70,2013-09-03 09:46:00,
2013-09-03 02:51:00,68.8,56.5,29.86,WSW,241,2.0,17.0,65,0.00,,,0.00,Weather View 32 v70,2013-09-03 09:51:00,
2013-09-03 02:56:00,68.4,56.1,29.86,South,184,5.0,17.0,65,0.00,,,0.00,Weather View 32 v70,2013-09-03 09:56:00,
2013-09-03 03:01:00,68.4,56.1,29.86,WSW,244,7.0,15.0,65,0.00,,,0.00,Weather View 32 v70,2013-09-03 10:01:00,
2013-09-03 03:06:00,68.3,56.0,29.85,WSW,254,2.0,15.0,65,0.00,,,0.00,Weather View 32 v70,2013-09-03 10:06:00,
2013-09-03 03:11:00,68.3,56.0,29.85,WSW,248,5.0,15.0,65,0.00,,,0.00,Weather View 32 v70,2013-09-03 10:11:00,
2013-09-03 03:16:00,68.1,55.9,29.86,WSW,258,4.0,15.0,65,0.00,,,0.00,Weather View 32 v70,2013-09-03 10:16:00,
2013-09-03 03:21:00,68.1,55.4,29.86,WSW,252,6.0,14.0,64,0.00,,,0.00,Weather View 32 v70,2013-09-03 10:21:00,
2013-09-03 03:26:00,68.1,55.4,29.85,SW,216,5.0,14.0,64,0.00,,,0.00,Weather View 32 v70,2013-09-03 10:26:00,
2013-09-03 03:31:00,68.1,55.4,29.85,West,270,1.0,13.0,64,0.00,,,0.00,Weather View 32 v70,2013-09-03 10:31:00,
2013-09-03 03:36:00,67.9,55.2,29.85,WSW,248,4.0,13.0,64,0.00,,,0.00,Weather View 32 v70,2013-09-03 10:36:00,
2013-09-03 03:41:00,67.9,55.2,29.86,West,276,5.0,13.0,64,0.00,,,0.00,Weather View 32 v70,2013-09-03 10:41:00,
2013-09-03 03:46:00,68.1,55.0,29.85,West,279,4.0,14.0,63,0.00,,,0.00,Weather View 32 v70,2013-09-03 10:46:00,
2013-09-03 03:51:00,67.9,54.8,29.86,West,265,5.0,14.0,63,0.00,,,0.00,Weather View 32 v70,2013-09-03 10:51:00,
2013-09-03 03:56:00,68.1,55.0,29.86,WSW,258,1.0,14.0,63,0.00,,,0.00,Weather View 32 v70,2013-09-03 10:56:00,
2013-09-03 04:01:00,68.1,55.0,29.86,West,274,0.0,14.0,63,0.00,,,0.00,Weather View 32 v70,2013-09-03 11:01:00,
2013-09-03 04:06:00,68.1,55.0,29.86,West,269,2.0,14.0,63,0.00,,,0.00,Weather View 32 v70,2013-09-03 11:06:00,
2013-09-03 04:11:00,68.1,55.0,29.86,WSW,241,4.0,14.0,63,0.00,,,0.00,Weather View 32 v70,2013-09-03 11:11:00,
2013-09-03 04:16:00,68.1,55.0,29.86,West,262,9.0,14.0,63,0.00,,,0.00,Weather View 32 v70,2013-09-03 11:16:00,
2013-09-03 04:21:00,68.1,54.5,29.86,SW,233,8.0,14.0,62,0.00,,,0.00,Weather View 32 v70,2013-09-03 11:21:00,
2013-09-03 04:26:00,68.1,54.5,29.86,WSW,252,14.0,14.0,62,0.00,,,0.00,Weather View 32 v70,2013-09-03 11:26:00,
2013-09-03 04:31:00,68.1,54.5,29.86,West,265,3.0,20.0,62,0.00,,,0.00,Weather View 32 v70,2013-09-03 11:31:00,
2013-09-03 04:36:00,67.9,54.8,29.86,West,273,5.0,20.0,63,0.00,,,0.00,Weather View 32 v70,2013-09-03 11:36:00,
2013-09-03 04:41:00,67.9,54.8,29.86,North,0,3.0,20.0,63,0.00,,,0.00,Weather View 32 v70,2013-09-03 11:41:00,
2013-09-03 04:46:00,67.9,54.4,29.86,WSW,247,7.0,20.0,62,0.00,,,0.00,Weather View 32 v70,2013-09-03 11:46:00,
2013-09-03 04:51:00,67.9,54.8,29.87,SW,236,7.0,20.0,63,0.00,,,0.00,Weather View 32 v70,2013-09-03 11:51:00,
2013-09-03 04:56:00,67.9,54.8,29.87,West,265,3.0,20.0,63,0.00,,,0.00,Weather View 32 v70,2013-09-03 11:56:00,
2013-09-03 05:01:00,67.9,54.8,29.86,WSW,257,1.0,20.0,63,0.00,,,0.00,Weather View 32 v70,2013-09-03 12:01:00,
2013-09-03 05:06:00,67.9,54.8,29.86,WSW,258,0.0,20.0,63,0.00,,,0.00,Weather View 32 v70,2013-09-03 12:06:00,
2013-09-03 05:11:00,67.8,54.7,29.87,West,259,2.0,20.0,63,0.00,,,0.00,Weather View 32 v70,2013-09-03 12:11:00,
2013-09-03 05:17:00,67.8,54.7,29.87,SW,226,1.0,20.0,63,0.00,,,0.00,Weather View 32 v70,2013-09-03 12:17:00,
2013-09-03 05:22:00,67.6,54.1,29.87,West,271,6.0,20.0,62,0.00,,,0.00,Weather View 32 v70,2013-09-03 12:22:00,
2013-09-03 05:27:00,67.8,54.3,29.87,West,281,2.0,20.0,62,0.00,,,0.00,Weather View 32 v70,2013-09-03 12:27:00,
2013-09-03 05:31:00,67.6,54.1,29.87,West,271,1.0,17.0,62,0.00,,,0.00,Weather View 32 v70,2013-09-03 12:31:00,
2013-09-03 05:36:00,67.3,53.8,29.87,West,270,5.0,17.0,62,0.00,,,0.00,Weather View 32 v70,2013-09-03 12:36:00,
2013-09-03 05:41:00,67.1,53.6,29.87,West,272,5.0,17.0,62,0.00,,,0.00,Weather View 32 v70,2013-09-03 12:41:00,
2013-09-03 05:47:00,67.1,54.0,29.87,West,259,5.0,17.0,63,0.00,,,0.00,Weather View 32 v70,2013-09-03 12:47:00,
2013-09-03 05:52:00,66.9,53.9,29.87,West,260,3.0,17.0,63,0.00,,,0.00,Weather View 32 v70,2013-09-03 12:52:00,
2013-09-03 05:57:00,66.8,54.2,29.87,West,271,6.0,17.0,64,0.00,,,0.00,Weather View 32 v70,2013-09-03 12:57:00,
2013-09-03 06:02:00,66.8,54.2,29.87,West,267,4.0,17.0,64,0.00,,,0.00,Weather View 32 v70,2013-09-03 13:02:00,
2013-09-03 06:07:00,66.8,54.2,29.87,North,0,4.0,17.0,64,0.00,,,0.00,Weather View 32 v70,2013-09-03 13:07:00,
2013-09-03 06:12:00,66.8,54.2,29.87,WSW,254,8.0,17.0,64,0.00,,,0.00,Weather View 32 v70,2013-09-03 13:12:00,
2013-09-03 06:17:00,66.6,54.4,29.87,WSW,245,7.0,17.0,65,0.00,,,0.00,Weather View 32 v70,2013-09-03 13:17:00,
2013-09-03 06:22:00,66.6,54.4,29.88,WSW,246,8.0,14.0,65,0.00,,,0.00,Weather View 32 v70,2013-09-03 13:22:00,
2013-09-03 06:27:00,66.6,54.0,29.88,West,279,7.0,14.0,64,0.00,,,0.00,Weather View 32 v70,2013-09-03 13:27:00,
2013-09-03 06:32:00,66.6,54.4,29.88,West,279,4.0,14.0,65,0.00,,,0.00,Weather View 32 v70,2013-09-03 13:32:00,
2013-09-03 06:37:00,66.6,54.4,29.88,WSW,249,8.0,14.0,65,0.00,,,0.00,Weather View 32 v70,2013-09-03 13:37:00,
2013-09-03 06:41:00,66.4,54.7,29.87,WSW,240,6.0,15.0,66,0.00,,,0.00,Weather View 32 v70,2013-09-03 13:41:00,
2013-09-03 06:46:00,66.4,54.7,29.88,West,276,0.0,16.0,66,0.00,,,0.00,Weather View 32 v70,2013-09-03 13:46:00,
2013-09-03 06:51:00,66.6,54.9,29.88,West,278,8.0,16.0,66,0.00,,,0.00,Weather View 32 v70,2013-09-03 13:51:00,
2013-09-03 06:56:00,66.6,54.9,29.88,West,268,8.0,16.0,66,0.00,,,0.00,Weather View 32 v70,2013-09-03 13:56:00,
2013-09-03 07:01:00,66.4,55.1,29.89,West,259,6.0,16.0,67,0.00,,,0.00,Weather View 32 v70,2013-09-03 14:01:00,
2013-09-03 07:06:00,66.4,55.1,29.89,West,269,11.0,16.0,67,0.00,,,0.00,Weather View 32 v70,2013-09-03 14:06:00,
2013-09-03 07:11:00,66.3,55.4,29.89,West,266,2.0,16.0,68,0.00,,,0.00,Weather View 32 v70,2013-09-03 14:11:00,
2013-09-03 07:16:00,66.3,55.4,29.89,West,276,5.0,16.0,68,0.00,,,0.00,Weather View 32 v70,2013-09-03 14:16:00,
2013-09-03 07:21:00,66.4,55.1,29.89,WSW,252,2.0,16.0,67,0.00,,,0.00,Weather View 32 v70,2013-09-03 14:21:00,
2013-09-03 07:26:00,66.4,55.1,29.88,WSW,258,5.0,16.0,67,0.00,,,0.00,Weather View 32 v70,2013-09-03 14:26:00,
2013-09-03 07:31:00,66.6,55.3,29.88,WSW,258,3.0,16.0,67,0.00,,,0.00,Weather View 32 v70,2013-09-03 14:31:00,
2013-09-03 07:36:00,66.9,55.1,29.88,West,262,2.0,16.0,66,0.00,,,0.00,Weather View 32 v70,2013-09-03 14:36:00,
2013-09-03 07:41:00,67.3,55.1,29.89,West,279,6.0,16.0,65,0.00,,,0.00,Weather View 32 v70,2013-09-03 14:41:00,
2013-09-03 07:46:00,67.4,55.2,29.89,WNW,302,5.0,16.0,65,0.00,,,0.00,Weather View 32 v70,2013-09-03 14:46:00,
2013-09-03 07:51:00,67.6,55.0,29.89,WNW,288,3.0,16.0,64,0.00,,,0.00,Weather View 32 v70,2013-09-03 14:51:00,
2013-09-03 07:56:00,68.1,54.5,29.89,West,259,5.0,16.0,62,0.00,,,0.00,Weather View 32 v70,2013-09-03 14:56:00,
2013-09-03 08:01:00,68.4,54.8,29.89,WNW,296,3.0,14.0,62,0.00,,,0.00,Weather View 32 v70,2013-09-03 15:01:00,
2013-09-03 08:06:00,68.8,55.2,29.90,West,272,3.0,13.0,62,0.00,,,0.00,Weather View 32 v70,2013-09-03 15:06:00,
2013-09-03 08:11:00,68.9,55.3,29.90,West,274,6.0,13.0,62,0.00,,,0.00,Weather View 32 v70,2013-09-03 15:11:00,
2013-09-03 08:16:00,68.9,54.9,29.90,WSW,249,5.0,13.0,61,0.00,,,0.00,Weather View 32 v70,2013-09-03 15:16:00,
2013-09-03 08:21:00,68.8,54.8,29.90,WNW,290,3.0,12.0,61,0.00,,,0.00,Weather View 32 v70,2013-09-03 15:21:00,
2013-09-03 08:26:00,68.4,54.8,29.90,West,268,8.0,12.0,62,0.00,,,0.00,Weather View 32 v70,2013-09-03 15:26:00,
2013-09-03 08:31:00,68.6,55.5,29.90,WNW,283,2.0,12.0,63,0.00,,,0.00,Weather View 32 v70,2013-09-03 15:31:00,
2013-09-03 08:36:00,68.9,55.7,29.90,WNW,294,3.0,12.0,63,0.00,,,0.00,Weather View 32 v70,2013-09-03 15:36:00,
2013-09-03 08:41:00,69.1,55.5,29.90,WSW,257,6.0,15.0,62,0.00,,,0.00,Weather View 32 v70,2013-09-03 15:41:00,
2013-09-03 08:46:00,68.9,55.7,29.90,West,273,8.0,15.0,63,0.00,,,0.00,Weather View 32 v70,2013-09-03 15:46:00,
2013-09-03 08:51:00,69.1,55.5,29.90,West,281,6.0,15.0,62,0.00,,,0.00,Weather View 32 v70,2013-09-03 15:51:00,
2013-09-03 08:56:00,69.1,55.9,29.90,WNW,291,5.0,16.0,63,0.00,,,0.00,Weather View 32 v70,2013-09-03 15:56:00,
2013-09-03 09:01:00,69.3,56.1,29.90,NW,304,7.0,16.0,63,0.00,,,0.00,Weather View 32 v70,2013-09-03 16:01:00,
2013-09-03 09:06:00,69.4,55.8,29.90,NW,310,9.0,16.0,62,0.00,,,0.00,Weather View 32 v70,2013-09-03 16:06:00,
2013-09-03 09:11:00,69.4,55.3,29.89,WNW,298,5.0,16.0,61,0.00,,,0.00,Weather View 32 v70,2013-09-03 16:11:00,
2013-09-03 09:16:00,69.6,55.5,29.90,WNW,286,5.0,17.0,61,0.00,,,0.00,Weather View 32 v70,2013-09-03 16:16:00,
2013-09-03 09:21:00,69.6,55.5,29.90,WNW,286,4.0,17.0,61,0.00,,,0.00,Weather View 32 v70,2013-09-03 16:21:00,
2013-09-03 09:26:00,69.8,55.2,29.90,WNW,303,9.0,17.0,60,0.00,,,0.00,Weather View 32 v70,2013-09-03 16:26:00,
2013-09-03 09:31:00,70.1,55.1,29.90,West,270,9.0,17.0,59,0.00,,,0.00,Weather View 32 v70,2013-09-03 16:31:00,
2013-09-03 09:36:00,70.1,55.1,29.90,WNW,287,8.0,17.0,59,0.00,,,0.00,Weather View 32 v70,2013-09-03 16:36:00,
2013-09-03 09:41:00,70.3,55.3,29.90,NW,306,5.0,17.0,59,0.00,,,0.00,Weather View 32 v70,2013-09-03 16:41:00,
2013-09-03 09:46:00,70.4,55.3,29.90,WNW,292,5.0,17.0,59,0.00,,,0.00,Weather View 32 v70,2013-09-03 16:46:00,
2013-09-03 09:51:00,70.9,55.3,29.90,WNW,296,9.0,17.0,58,0.00,,,0.00,Weather View 32 v70,2013-09-03 16:51:00,
2013-09-03 09:56:00,70.9,55.3,29.90,WNW,303,5.0,17.0,58,0.00,,,0.00,Weather View 32 v70,2013-09-03 16:56:00,
2013-09-03 10:01:00,71.3,55.2,29.90,West,279,11.0,17.0,57,0.00,,,0.00,Weather View 32 v70,2013-09-03 17:01:00,
2013-09-03 10:06:00,71.3,55.2,29.90,WNW,291,6.0,17.0,57,0.00,,,0.00,Weather View 32 v70,2013-09-03 17:06:00,
2013-09-03 10:11:00,71.5,55.9,29.90,West,268,6.0,17.0,58,0.00,,,0.00,Weather View 32 v70,2013-09-03 17:11:00,
2013-09-03 10:16:00,71.3,55.2,29.90,West,272,10.0,16.0,57,0.00,,,0.00,Weather View 32 v70,2013-09-03 17:16:00,
2013-09-03 10:21:00,71.1,55.5,29.91,West,269,10.0,19.0,58,0.00,,,0.00,Weather View 32 v70,2013-09-03 17:21:00,
2013-09-03 10:26:00,71.3,55.7,29.90,WNW,294,10.0,19.0,58,0.00,,,0.00,Weather View 32 v70,2013-09-03 17:26:00,
2013-09-03 10:31:00,71.5,55.9,29.90,West,269,6.0,24.0,58,0.00,,,0.00,Weather View 32 v70,2013-09-03 17:31:00,
2013-09-03 10:36:00,72.1,56.0,29.90,West,261,7.0,24.0,57,0.00,,,0.00,Weather View 32 v70,2013-09-03 17:36:00,
2013-09-03 10:41:00,72.1,56.5,29.90,West,276,8.0,24.0,58,0.00,,,0.00,Weather View 32 v70,2013-09-03 17:41:00,
2013-09-03 10:46:00,72.5,56.4,29.90,WNW,289,10.0,24.0,57,0.00,,,0.00,Weather View 32 v70,2013-09-03 17:46:00,
2013-09-03 10:51:00,72.3,55.7,29.90,West,273,8.0,24.0,56,0.00,,,0.00,Weather View 32 v70,2013-09-03 17:51:00,
2013-09-03 10:56:00,72.7,56.0,29.90,WNW,284,9.0,24.0,56,0.00,,,0.00,Weather View 32 v70,2013-09-03 17:56:00,
2013-09-03 11:01:00,73.2,55.5,29.90,WSW,253,12.0,24.0,54,0.00,,,0.00,Weather View 32 v70,2013-09-03 18:01:00,
2013-09-03 11:06:00,73.2,56.0,29.90,West,266,9.0,24.0,55,0.00,,,0.00,Weather View 32 v70,2013-09-03 18:06:00,
2013-09-03 11:11:00,73.5,55.8,29.90,WNW,294,7.0,24.0,54,0.00,,,0.00,Weather View 32 v70,2013-09-03 18:11:00,
2013-09-03 11:16:00,73.5,55.8,29.90,SW,229,10.0,24.0,54,0.00,,,0.00,Weather View 32 v70,2013-09-03 18:16:00,
2013-09-03 11:21:00,73.7,56.0,29.89,NW,304,10.0,24.0,54,0.00,,,0.00,Weather View 32 v70,2013-09-03 18:21:00,
2013-09-03 11:26:00,73.9,56.2,29.89,WNW,288,6.0,24.0,54,0.00,,,0.00,Weather View 32 v70,2013-09-03 18:26:00,
2013-09-03 11:31:00,74.0,56.2,29.90,SW,225,11.0,19.0,54,0.00,,,0.00,Weather View 32 v70,2013-09-03 18:31:00,
2013-09-03 11:36:00,74.2,56.4,29.89,WSW,257,22.0,22.0,54,0.00,,,0.00,Weather View 32 v70,2013-09-03 18:36:00,
2013-09-03 11:41:00,74.0,56.2,29.90,WSW,238,10.0,22.0,54,0.00,,,0.00,Weather View 32 v70,2013-09-03 18:41:00,
2013-09-03 11:46:00,74.0,56.8,29.89,West,272,9.0,22.0,55,0.00,,,0.00,Weather View 32 v70,2013-09-03 18:46:00,
2013-09-03 11:51:00,74.0,56.2,29.89,NW,307,7.0,22.0,54,0.00,,,0.00,Weather View 32 v70,2013-09-03 18:51:00,
2013-09-03 11:56:00,73.5,56.8,29.89,WNW,296,7.0,24.0,56,0.00,,,0.00,Weather View 32 v70,2013-09-03 18:56:00,
2013-09-03 12:01:00,73.5,56.3,29.89,WNW,289,14.0,24.0,55,0.00,,,0.00,Weather View 32 v70,2013-09-03 19:01:00,
2013-09-03 12:06:00,73.9,56.7,29.89,WSW,252,10.0,24.0,55,0.00,,,0.00,Weather View 32 v70,2013-09-03 19:06:00,
2013-09-03 12:11:00,74.2,56.4,29.89,WNW,296,4.0,24.0,54,0.00,,,0.00,Weather View 32 v70,2013-09-03 19:11:00,
2013-09-03 12:16:00,74.6,56.3,29.89,WNW,295,5.0,24.0,53,0.00,,,0.00,Weather View 32 v70,2013-09-03 19:16:00,
2013-09-03 12:21:00,74.4,56.6,29.89,West,281,8.0,24.0,54,0.00,,,0.00,Weather View 32 v70,2013-09-03 19:21:00,
2013-09-03 12:26:00,74.7,56.4,29.89,West,281,4.0,24.0,53,0.00,,,0.00,Weather View 32 v70,2013-09-03 19:26:00,
2013-09-03 12:31:00,74.9,56.6,29.89,WNW,293,10.0,24.0,53,0.00,,,0.00,Weather View 32 v70,2013-09-03 19:31:00,
2013-09-03 12:36:00,75.1,57.3,29.89,WNW,286,6.0,24.0,54,0.00,,,0.00,Weather View 32 v70,2013-09-03 19:36:00,
2013-09-03 12:41:00,74.9,57.1,29.89,WNW,296,7.0,25.0,54,0.00,,,0.00,Weather View 32 v70,2013-09-03 19:41:00,
2013-09-03 12:46:00,74.9,57.6,29.89,WNW,293,5.0,26.0,55,0.00,,,0.00,Weather View 32 v70,2013-09-03 19:46:00,
2013-09-03 12:51:00,75.1,57.3,29.89,WNW,290,9.0,26.0,54,0.00,,,0.00,Weather View 32 v70,2013-09-03 19:51:00,
2013-09-03 12:56:00,75.3,57.5,29.88,West,277,7.0,26.0,54,0.00,,,0.00,Weather View 32 v70,2013-09-03 19:56:00,
2013-09-03 13:01:00,75.6,57.2,29.89,West,262,12.0,26.0,53,0.00,,,0.00,Weather View 32 v70,2013-09-03 20:01:00,
2013-09-03 13:06:00,75.6,57.2,29.88,WNW,285,7.0,26.0,53,0.00,,,0.00,Weather View 32 v70,2013-09-03 20:06:00,
2013-09-03 13:11:00,75.8,55.2,29.89,NW,304,8.0,26.0,49,0.00,,,0.00,Weather View 32 v70,2013-09-03 20:11:00,
2013-09-03 13:16:00,76.0,57.6,29.89,NW,307,4.0,26.0,53,0.00,,,0.00,Weather View 32 v70,2013-09-03 20:16:00,
2013-09-03 13:21:00,75.6,57.2,29.89,WNW,302,12.0,26.0,53,0.00,,,0.00,Weather View 32 v70,2013-09-03 20:21:00,
2013-09-03 13:26:00,75.8,57.9,29.89,WNW,282,8.0,26.0,54,0.00,,,0.00,Weather View 32 v70,2013-09-03 20:26:00,
2013-09-03 13:31:00,76.0,57.0,29.89,West,259,9.0,26.0,52,0.00,,,0.00,Weather View 32 v70,2013-09-03 20:31:00,
2013-09-03 13:36:00,76.5,57.5,29.89,West,281,19.0,26.0,52,0.00,,,0.00,Weather View 32 v70,2013-09-03 20:36:00,
2013-09-03 13:41:00,76.0,57.0,29.89,West,266,11.0,26.0,52,0.00,,,0.00,Weather View 32 v70,2013-09-03 20:41:00,
2013-09-03 13:46:00,75.8,57.4,29.89,WNW,293,12.0,21.0,53,0.00,,,0.00,Weather View 32 v70,2013-09-03 20:46:00,
2013-09-03 13:51:00,77.0,58.0,29.89,SW,227,10.0,21.0,52,0.00,,,0.00,Weather View 32 v70,2013-09-03 20:51:00,
2013-09-03 13:56:00,77.0,57.4,29.89,NW,309,8.0,21.0,51,0.00,,,0.00,Weather View 32 v70,2013-09-03 20:56:00,
2013-09-03 14:01:00,76.3,55.7,29.89,WNW,299,8.0,21.0,49,0.00,,,0.00,Weather View 32 v70,2013-09-03 21:01:00,
2013-09-03 14:06:00,76.7,57.7,29.89,WNW,289,11.0,21.0,52,0.00,,,0.00,Weather View 32 v70,2013-09-03 21:06:00,
2013-09-03 14:11:00,77.2,57.1,29.89,WNW,283,11.0,21.0,50,0.00,,,0.00,Weather View 32 v70,2013-09-03 21:11:00,
2013-09-03 14:16:00,77.6,57.4,29.89,WNW,298,5.0,21.0,50,0.00,,,0.00,Weather View 32 v70,2013-09-03 21:16:00,
2013-09-03 14:21:00,77.7,57.5,29.89,NW,309,7.0,21.0,50,0.00,,,0.00,Weather View 32 v70,2013-09-03 21:21:00,
2013-09-03 14:26:00,77.7,57.5,29.89,NW,307,6.0,21.0,50,0.00,,,0.00,Weather View 32 v70,2013-09-03 21:26:00,
2013-09-03 14:31:00,77.6,57.4,29.89,WNW,294,11.0,21.0,50,0.00,,,0.00,Weather View 32 v70,2013-09-03 21:31:00,
2013-09-03 14:36:00,77.9,57.1,29.89,NW,309,6.0,21.0,49,0.00,,,0.00,Weather View 32 v70,2013-09-03 21:36:00,
2013-09-03 14:41:00,79.0,57.0,29.89,NW,310,15.0,21.0,47,0.00,,,0.00,Weather View 32 v70,2013-09-03 21:41:00,
2013-09-03 14:46:00,79.0,57.0,29.89,West,260,14.0,21.0,47,0.00,,,0.00,Weather View 32 v70,2013-09-03 21:46:00,
2013-09-03 14:51:00,78.5,56.5,29.89,West,263,6.0,21.0,47,0.00,,,0.00,Weather View 32 v70,2013-09-03 21:51:00,
2013-09-03 14:56:00,78.6,57.2,29.89,WNW,300,7.0,21.0,48,0.00,,,0.00,Weather View 32 v70,2013-09-03 21:56:00,
2013-09-03 15:01:00,78.6,57.2,29.89,NNW,329,5.0,20.0,48,0.00,,,0.00,Weather View 32 v70,2013-09-03 22:01:00,
2013-09-03 15:06:00,78.8,57.4,29.89,WNW,302,9.0,20.0,48,0.00,,,0.00,Weather View 32 v70,2013-09-03 22:06:00,
2013-09-03 15:11:00,79.2,57.2,29.89,West,274,7.0,20.0,47,0.00,,,0.00,Weather View 32 v70,2013-09-03 22:11:00,
2013-09-03 15:16:00,79.0,57.0,29.89,WNW,286,12.0,20.0,47,0.00,,,0.00,Weather View 32 v70,2013-09-03 22:16:00,
2013-09-03 15:21:00,79.6,56.9,29.89,West,273,4.0,20.0,46,0.00,,,0.00,Weather View 32 v70,2013-09-03 22:21:00,
2013-09-03 15:26:00,79.4,56.7,29.88,WSW,252,7.0,20.0,46,0.00,,,0.00,Weather View 32 v70,2013-09-03 22:26:00,
2013-09-03 15:31:00,79.8,57.1,29.89,West,280,10.0,20.0,46,0.00,,,0.00,Weather View 32 v70,2013-09-03 22:31:00,
2013-09-03 15:36:00,79.8,57.1,29.88,WNW,286,4.0,20.0,46,0.00,,,0.00,Weather View 32 v70,2013-09-03 22:36:00,
2013-09-03 15:41:00,79.8,56.5,29.88,NW,305,14.0,20.0,45,0.00,,,0.00,Weather View 32 v70,2013-09-03 22:41:00,
2013-09-03 15:46:00,79.8,56.5,29.88,WNW,288,9.0,20.0,45,0.00,,,0.00,Weather View 32 v70,2013-09-03 22:46:00,
2013-09-03 15:51:00,79.6,56.3,29.88,NW,311,7.0,20.0,45,0.00,,,0.00,Weather View 32 v70,2013-09-03 22:51:00,
2013-09-03 15:56:00,79.9,56.0,29.88,West,264,10.0,20.0,44,0.00,,,0.00,Weather View 32 v70,2013-09-03 22:56:00,
2013-09-03 16:01:00,79.9,57.2,29.88,WNW,283,8.0,20.0,46,0.00,,,0.00,Weather View 32 v70,2013-09-03 23:01:00,
2013-09-03 16:06:00,79.9,56.0,29.88,West,267,9.0,20.0,44,0.00,,,0.00,Weather View 32 v70,2013-09-03 23:06:00,
2013-09-03 16:11:00,80.1,56.8,29.88,WNW,299,5.0,20.0,45,0.00,,,0.00,Weather View 32 v70,2013-09-03 23:11:00,
2013-09-03 16:16:00,80.1,56.1,29.88,West,275,12.0,20.0,44,0.00,,,0.00,Weather View 32 v70,2013-09-03 23:16:00,
2013-09-03 16:21:00,80.1,56.1,29.88,NW,319,11.0,20.0,44,0.00,,,0.00,Weather View 32 v70,2013-09-03 23:21:00,
2013-09-03 16:26:00,80.5,57.1,29.87,WNW,302,6.0,18.0,45,0.00,,,0.00,Weather View 32 v70,2013-09-03 23:26:00,
2013-09-03 16:31:00,80.5,55.9,29.87,WSW,251,13.0,18.0,43,0.00,,,0.00,Weather View 32 v70,2013-09-03 23:31:00,
2013-09-03 16:36:00,80.3,55.7,29.87,WNW,298,4.0,18.0,43,0.00,,,0.00,Weather View 32 v70,2013-09-03 23:36:00,
2013-09-03 16:41:00,80.1,55.5,29.87,West,277,7.0,18.0,43,0.00,,,0.00,Weather View 32 v70,2013-09-03 23:41:00,
2013-09-03 16:46:00,80.1,56.1,29.87,NW,313,14.0,18.0,44,0.00,,,0.00,Weather View 32 v70,2013-09-03 23:46:00,
2013-09-03 16:51:00,79.9,56.6,29.87,West,271,5.0,18.0,45,0.00,,,0.00,Weather View 32 v70,2013-09-03 23:51:00,
2013-09-03 16:56:00,79.8,55.9,29.87,West,269,6.0,18.0,44,0.00,,,0.00,Weather View 32 v70,2013-09-03 23:56:00,
2013-09-03 17:01:00,79.8,55.9,29.86,West,273,3.0,18.0,44,0.00,,,0.00,Weather View 32 v70,2013-09-04 00:01:00,
2013-09-03 17:06:00,79.4,55.5,29.87,SW,228,11.0,18.0,44,0.00,,,0.00,Weather View 32 v70,2013-09-04 00:06:00,
2013-09-03 17:11:00,79.2,55.3,29.86,WNW,302,6.0,18.0,44,0.00,,,0.00,Weather View 32 v70,2013-09-04 00:11:00,
2013-09-03 17:16:00,79.4,55.5,29.86,WNW,300,6.0,17.0,44,0.00,,,0.00,Weather View 32 v70,2013-09-04 00:16:00,
2013-09-03 17:21:00,79.2,54.7,29.86,WNW,290,4.0,18.0,43,0.00,,,0.00,Weather View 32 v70,2013-09-04 00:21:00,
2013-09-03 17:26:00,78.8,55.0,29.86,WSW,256,8.0,18.0,44,0.00,,,0.00,Weather View 32 v70,2013-09-04 00:26:00,
2013-09-03 17:31:00,78.5,54.7,29.86,NNW,333,5.0,18.0,44,0.00,,,0.00,Weather View 32 v70,2013-09-04 00:31:00,
2013-09-03 17:36:00,78.5,55.3,29.86,WSW,240,8.0,18.0,45,0.00,,,0.00,Weather View 32 v70,2013-09-04 00:36:00,
2013-09-03 17:41:00,78.5,55.9,29.87,WNW,298,7.0,18.0,46,0.00,,,0.00,Weather View 32 v70,2013-09-04 00:41:00,
2013-09-03 17:46:00,77.7,55.2,29.87,WSW,254,11.0,18.0,46,0.00,,,0.00,Weather View 32 v70,2013-09-04 00:46:00,
2013-09-03 17:51:00,77.2,55.3,29.87,WNW,296,6.0,18.0,47,0.00,,,0.00,Weather View 32 v70,2013-09-04 00:51:00,
2013-09-03 17:56:00,76.8,55.6,29.87,West,267,5.0,18.0,48,0.00,,,0.00,Weather View 32 v70,2013-09-04 00:56:00,
2013-09-03 18:01:00,76.8,55.6,29.87,West,279,6.0,18.0,48,0.00,,,0.00,Weather View 32 v70,2013-09-04 01:01:00,
2013-09-03 18:06:00,76.7,54.9,29.87,NW,306,7.0,19.0,47,0.00,,,0.00,Weather View 32 v70,2013-09-04 01:06:00,
2013-09-03 18:11:00,76.5,54.7,29.86,WSW,257,6.0,19.0,47,0.00,,,0.00,Weather View 32 v70,2013-09-04 01:11:00,
2013-09-03 18:16:00,76.5,55.3,29.86,West,273,6.0,19.0,48,0.00,,,0.00,Weather View 32 v70,2013-09-04 01:16:00,
2013-09-03 18:21:00,76.5,55.3,29.87,West,277,6.0,21.0,48,0.00,,,0.00,Weather View 32 v70,2013-09-04 01:21:00,
2013-09-03 18:26:00,76.3,55.7,29.87,West,263,8.0,21.0,49,0.00,,,0.00,Weather View 32 v70,2013-09-04 01:26:00,
2013-09-03 18:31:00,76.1,56.0,29.87,WNW,290,8.0,21.0,50,0.00,,,0.00,Weather View 32 v70,2013-09-04 01:31:00,
2013-09-03 18:35:00,76.1,56.0,29.86,West,261,5.0,21.0,50,0.00,,,0.00,Weather View 32 v70,2013-09-04 01:35:00,
2013-09-03 18:36:00,76.1,56.0,29.87,WNW,294,8.0,21.0,50,0.00,,,0.00,Weather View 32 v70,2013-09-04 01:36:00,
2013-09-03 18:49:00,76.0,56.0,29.87,West,271,3.0,21.0,50,0.00,,,0.00,Weather View 32 v70,2013-09-04 01:49:00,
2013-09-03 18:54:00,76.0,56.0,29.87,WNW,294,5.0,21.0,50,0.00,,,0.00,Weather View 32 v70,2013-09-04 01:54:00,
2013-09-03 18:59:00,75.8,56.3,29.88,West,279,6.0,21.0,51,0.00,,,0.00,Weather View 32 v70,2013-09-04 01:59:00,
2013-09-03 19:04:00,75.8,55.8,29.88,West,273,3.0,21.0,50,0.00,,,0.00,Weather View 32 v70,2013-09-04 02:04:00,
2013-09-03 19:09:00,75.8,55.8,29.88,WNW,294,2.0,21.0,50,0.00,,,0.00,Weather View 32 v70,2013-09-04 02:09:00,
2013-09-03 19:14:00,75.8,55.8,29.88,WNW,284,3.0,21.0,50,0.00,,,0.00,Weather View 32 v70,2013-09-04 02:14:00,
2013-09-03 19:19:00,75.4,55.4,29.89,West,275,4.0,17.0,50,0.00,,,0.00,Weather View 32 v70,2013-09-04 02:19:00,
2013-09-03 19:24:00,75.3,55.9,29.89,WNW,294,2.0,17.0,51,0.00,,,0.00,Weather View 32 v70,2013-09-04 02:24:00,
2013-09-03 19:29:00,75.1,55.7,29.89,WNW,292,8.0,17.0,51,0.00,,,0.00,Weather View 32 v70,2013-09-04 02:29:00,
2013-09-03 19:34:00,75.1,55.7,29.90,West,263,3.0,17.0,51,0.00,,,0.00,Weather View 32 v70,2013-09-04 02:34:00,
2013-09-03 19:39:00,74.9,55.5,29.90,WNW,286,4.0,14.0,51,0.00,,,0.00,Weather View 32 v70,2013-09-04 02:39:00,
2013-09-03 19:44:00,74.9,56.0,29.90,West,276,2.0,14.0,52,0.00,,,0.00,Weather View 32 v70,2013-09-04 02:44:00,
2013-09-03 19:49:00,74.7,55.8,29.91,West,259,3.0,14.0,52,0.00,,,0.00,Weather View 32 v70,2013-09-04 02:49:00,
2013-09-03 19:54:00,74.6,55.8,29.91,WSW,258,1.0,14.0,52,0.00,,,0.00,Weather View 32 v70,2013-09-04 02:54:00,
2013-09-03 19:59:00,74.4,55.6,29.91,WSW,250,3.0,14.0,52,0.00,,,0.00,Weather View 32 v70,2013-09-04 02:59:00,
2013-09-03 20:04:00,74.4,56.1,29.91,WSW,248,0.0,14.0,53,0.00,,,0.00,Weather View 32 v70,2013-09-04 03:04:00,
2013-09-03 20:09:00,74.2,55.9,29.91,WSW,248,4.0,14.0,53,0.00,,,0.00,Weather View 32 v70,2013-09-04 03:09:00,
2013-09-03 20:14:00,74.0,55.7,29.92,WSW,248,0.0,10.0,53,0.00,,,0.00,Weather View 32 v70,2013-09-04 03:14:00,
2013-09-03 20:19:00,74.0,55.7,29.92,WSW,248,0.0,10.0,53,0.00,,,0.00,Weather View 32 v70,2013-09-04 03:19:00,
2013-09-03 20:24:00,73.9,55.6,29.93,WSW,248,1.0,10.0,53,0.00,,,0.00,Weather View 32 v70,2013-09-04 03:24:00,
2013-09-03 20:29:00,73.5,55.8,29.93,SW,236,0.0,10.0,54,0.00,,,0.00,Weather View 32 v70,2013-09-04 03:29:00,
2013-09-03 20:34:00,73.5,55.8,29.93,SW,236,0.0,9.0,54,0.00,,,0.00,Weather View 32 v70,2013-09-04 03:34:00,
2013-09-03 20:39:00,73.5,55.8,29.93,SW,236,1.0,9.0,54,0.00,,,0.00,Weather View 32 v70,2013-09-04 03:39:00,
2013-09-03 20:44:00,73.3,55.6,29.93,SW,236,1.0,9.0,54,0.00,,,0.00,Weather View 32 v70,2013-09-04 03:44:00,
2013-09-03 20:49:00,73.2,55.5,29.93,SW,236,1.0,7.0,54,0.00,,,0.00,Weather View 32 v70,2013-09-04 03:49:00,
2013-09-03 20:54:00,72.8,55.6,29.93,SW,236,1.0,7.0,55,0.00,,,0.00,Weather View 32 v70,2013-09-04 03:54:00,
2013-09-03 20:59:00,72.7,56.0,29.93,SW,236,0.0,5.0,56,0.00,,,0.00,Weather View 32 v70,2013-09-04 03:59:00,
2013-09-03 21:01:00,72.5,55.9,29.93,SW,236,0.0,5.0,56,0.00,,,0.00,Weather View 32 v70,2013-09-04 04:01:00,
2013-09-03 21:06:00,72.1,56.0,29.93,SW,236,0.0,5.0,57,0.00,,,0.00,Weather View 32 v70,2013-09-04 04:06:00,
2013-09-03 21:11:00,71.6,56.0,29.93,SW,236,0.0,5.0,58,0.00,,,0.00,Weather View 32 v70,2013-09-04 04:11:00,
2013-09-03 21:16:00,71.3,55.7,29.93,SW,236,0.0,5.0,58,0.00,,,0.00,Weather View 32 v70,2013-09-04 04:16:00,
2013-09-03 21:21:00,71.5,55.9,29.93,SW,236,0.0,5.0,58,0.00,,,0.00,Weather View 32 v70,2013-09-04 04:21:00,
2013-09-03 21:26:00,71.6,55.5,29.93,SW,236,0.0,5.0,57,0.00,,,0.00,Weather View 32 v70,2013-09-04 04:26:00,
2013-09-03 21:31:00,71.5,55.9,29.93,SW,236,0.0,5.0,58,0.00,,,0.00,Weather View 32 v70,2013-09-04 04:31:00,
2013-09-03 21:36:00,71.1,55.5,29.93,SW,236,0.0,5.0,58,0.00,,,0.00,Weather View 32 v70,2013-09-04 04:36:00,
2013-09-03 21:41:00,70.9,55.8,29.93,SW,236,0.0,5.0,59,0.00,,,0.00,Weather View 32 v70,2013-09-04 04:41:00,
2013-09-03 21:46:00,70.6,55.5,29.93,SW,236,0.0,5.0,59,0.00,,,0.00,Weather View 32 v70,2013-09-04 04:46:00,
2013-09-03 21:51:00,70.8,55.2,29.93,WSW,245,3.0,6.0,58,0.00,,,0.00,Weather View 32 v70,2013-09-04 04:51:00,
2013-09-03 21:56:00,70.9,55.3,29.93,SW,229,2.0,7.0,58,0.00,,,0.00,Weather View 32 v70,2013-09-04 04:56:00,
2013-09-03 22:01:00,70.9,55.3,29.93,SW,229,0.0,7.0,58,0.00,,,0.00,Weather View 32 v70,2013-09-04 05:01:00,
2013-09-03 22:06:00,70.6,55.5,29.93,SW,229,2.0,7.0,59,0.00,,,0.00,Weather View 32 v70,2013-09-04 05:06:00,
2013-09-03 22:11:00,70.4,55.8,29.93,SW,229,0.0,7.0,60,0.00,,,0.00,Weather View 32 v70,2013-09-04 05:11:00,
2013-09-03 22:16:00,70.3,55.7,29.93,SW,229,0.0,7.0,60,0.00,,,0.00,Weather View 32 v70,2013-09-04 05:16:00,
2013-09-03 22:21:00,69.9,55.3,29.93,SW,229,0.0,7.0,60,0.00,,,0.00,Weather View 32 v70,2013-09-04 05:21:00,
2013-09-03 22:26:00,69.9,55.3,29.93,SW,229,0.0,7.0,60,0.00,,,0.00,Weather View 32 v70,2013-09-04 05:26:00,
2013-09-03 22:31:00,69.8,55.7,29.93,SW,229,0.0,7.0,61,0.00,,,0.00,Weather View 32 v70,2013-09-04 05:31:00,
2013-09-03 22:36:00,69.6,55.5,29.93,SW,229,0.0,7.0,61,0.00,,,0.00,Weather View 32 v70,2013-09-04 05:36:00,
2013-09-03 22:41:00,69.6,55.5,29.93,SW,232,1.0,7.0,61,0.00,,,0.00,Weather View 32 v70,2013-09-04 05:41:00,
2013-09-03 22:46:00,70.1,55.5,29.93,WSW,253,5.0,8.0,60,0.00,,,0.00,Weather View 32 v70,2013-09-04 05:46:00,
2013-09-03 22:51:00,70.8,55.7,29.93,WSW,254,1.0,8.0,59,0.00,,,0.00,Weather View 32 v70,2013-09-04 05:51:00,
2013-09-03 22:56:00,70.9,55.3,29.93,WSW,252,2.0,9.0,58,0.00,,,0.00,Weather View 32 v70,2013-09-04 05:56:00,
2013-09-03 23:01:00,70.9,55.3,29.93,WSW,252,0.0,9.0,58,0.00,,,0.00,Weather View 32 v70,2013-09-04 06:01:00,
2013-09-03 23:06:00,70.8,55.7,29.93,WSW,252,0.0,9.0,59,0.00,,,0.00,Weather View 32 v70,2013-09-04 06:06:00,
2013-09-03 23:11:00,70.3,55.3,29.93,WSW,252,1.0,9.0,59,0.00,,,0.00,Weather View 32 v70,2013-09-04 06:11:00,
2013-09-03 23:16:00,70.1,55.1,29.92,WSW,252,0.0,9.0,59,0.00,,,0.00,Weather View 32 v70,2013-09-04 06:16:00,
2013-09-03 23:21:00,70.1,55.1,29.92,WSW,252,0.0,9.0,59,0.00,,,0.00,Weather View 32 v70,2013-09-04 06:21:00,
2013-09-03 23:26:00,69.9,54.9,29.92,WSW,254,0.0,9.0,59,0.00,,,0.00,Weather View 32 v70,2013-09-04 06:26:00,
2013-09-03 23:32:00,70.1,55.1,29.92,WSW,254,2.0,9.0,59,0.00,,,0.00,Weather View 32 v70,2013-09-04 06:32:00,
2013-09-03 23:36:00,70.1,55.1,29.92,North,0,4.0,9.0,59,0.00,,,0.00,Weather View 32 v70,2013-09-04 06:36:00,
2013-09-03 23:41:00,69.9,55.8,29.92,WSW,257,0.0,9.0,61,0.00,,,0.00,Weather View 32 v70,2013-09-04 06:41:00,
2013-09-03 23:46:00,69.8,55.2,29.91,WNW,286,0.0,9.0,60,0.00,,,0.00,Weather View 32 v70,2013-09-04 06:46:00,
2013-09-03 23:51:00,69.8,54.8,29.91,West,267,3.0,9.0,59,0.00,,,0.00,Weather View 32 v70,2013-09-04 06:51:00,
2013-09-03 23:56:00,70.1,54.6,29.91,West,278,2.0,9.0,58,0.00,,,0.00,Weather View 32 v70,2013-09-04 06:56:00,